Location: *
(50.5492°N, 7.7469°E)
Time: 18:33:31
(UTC+00:00)

STARLINK-81 - Pass Details

Date: 21 October 2019
Orbit: 548 x 551 km, 53.0° (Epoch: 14 November)

Event Time Altitude Azimuth Distance (km) Brightness Sun altitude
Rises 17:40:37 0° 273° (W) 2,717 9.2 -12.6°
Reaches altitude 10° 17:42:52 10° 277° (W) 1,824 7.7 -12.9°
Maximum altitude 17:46:59 60° 358° (N) 632 3.9 -13.6°
Enters shadow 17:49:27 23° 73° (ENE) 1,210 4.8 -14.0°
